CW5066 Weather Reports


Display with metric or nautical units.
time (UTC)temp
F
wind
direction
speed
MPH
gust
MPH
rain 1hr
in
rain 24hr
in
rain mn
in
humidity
%
barometer
mb
20260504023517 43 0 3.0 6.0 0.00 0.00 0.00 47 1015.6
20260504022517 43 0 5.0 9.0 0.00 0.00 0.00 46 1015.5
20260504021537 44 0 3.0 6.0 0.00 0.00 0.00 46 1015.2
20260504020517 44 0 4.0 10.0 0.00 0.00 0.00 46 1015.2
20260504015517 44 0 7.0 15.0 0.00 0.00 0.00 47 1015.4
20260504014517 45 0 9.0 15.0 0.00 0.00 0.00 44 1016.2
20260504013517 46 0 5.0 10.0 0.00 0.00 0.00 39 1015.9
20260504012517 47 0 2.0 8.0 0.00 0.00 0.00 38 1016.3
20260504011537 48 0 2.0 7.0 0.00 0.00 0.00 37 1016.2
20260504010517 49 0 3.0 7.0 0.00 0.00 0.00 35 1016.7
20260504005517 51 0 4.0 15.0 0.00 0.00 0.00 33 1017.1
20260504004537 51 0 4.0 10.0 0.00 0.00 0.00 32 1017.2
20260504003516 52 90 7.0 27.0 0.00 0.00 0.00 31 1017.0
20260504002517 53 0 5.0 12.0 0.00 0.00 0.00 31 1017.7
20260504001516 53 0 4.0 13.0 0.00 0.00 0.00 30 1018.0
20260504000517 52 90 3.0 10.0 0.00 0.00 0.00 31 1017.3
20260503235516 50 0 4.0 10.0 0.00 0.00 0.00 32 1016.7
20260503234517 49 0 4.0 11.0 0.00 0.00 0.00 33 1016.9
20260503233517 49 0 6.0 15.0 0.00 0.00 0.00 32 1016.8
20260503232516 50 0 7.0 15.0 0.00 0.00 0.00 31 1017.5
20260503231516 50 0 7.0 17.0 0.00 0.00 0.00 33 1017.5
20260503230516 50 0 9.0 20.0 0.00 0.00 0.00 35 1017.5
20260503225516 53 0 7.0 17.0 0.00 0.00 0.00 29 1017.9
20260503224516 53 0 7.0 17.0 0.00 0.00 0.00 27 1017.7
20260503223516 52 0 7.0 13.0 0.00 0.00 0.00 25 1017.1
20260503222516 52 0 6.0 16.0 0.00 0.00 0.00 25 1017.1
20260503221516 52 0 8.0 15.0 0.00 0.00 0.00 27 1017.3
20260503220516 53 0 6.0 15.0 0.00 0.00 0.00 29 1017.4
20260503215516 51 0 7.0 13.0 0.00 0.00 0.00 27 1017.3
20260503214516 53 68 4.0 11.0 0.00 0.00 0.00 32 1018.3
20260503213516 51 90 7.0 14.0 0.00 0.00 0.00 31 1017.9
20260503212516 52 45 3.0 8.0 0.00 0.00 0.00 28 1017.9
20260503211516 51 68 6.0 15.0 0.00 0.00 0.00 33 1018.0
20260503210516 49 0 6.0 12.0 0.00 0.00 0.00 32 1017.6
20260503205516 49 113 3.0 7.0 0.00 0.00 0.00 32 1017.6
20260503204516 50 90 5.0 15.0 0.00 0.00 0.00 31 1018.3
20260503203516 50 68 5.0 12.0 0.00 0.00 0.00 30 1018.5
20260503202516 50 135 5.0 13.0 0.00 0.00 0.00 30 1018.5
20260503201517 51 90 4.0 12.0 0.00 0.00 0.00 28 1019.4
20260503200516 51 68 6.0 13.0 0.00 0.00 0.00 28 1019.4
20260503195516 50 0 3.0 12.0 0.00 0.00 0.00 29 1019.0
20260503194516 50 0 7.0 20.0 0.00 0.00 0.00 28 1018.9
20260503193516 50 0 7.0 17.0 0.00 0.00 0.00 28 1019.1
20260503192516 52 0 4.0 10.0 0.00 0.00 0.00 27 1019.6
20260503191536 53 68 6.0 15.0 0.00 0.00 0.00 27 1020.4
20260503190516 53 0 2.0 9.0 0.00 0.00 0.00 26 1020.5
20260503185536 52 0 3.0 10.0 0.00 0.00 0.00 27 1020.6
20260503184516 54 0 8.0 16.0 0.00 0.00 0.00 23 1021.3
20260503183536 52 68 9.0 18.0 0.00 0.00 0.00 25 1020.7
20260503182516 51 0 11.0 24.0 0.00 0.00 0.00 23 1020.2
20260503181516 51 0 10.0 19.0 0.00 0.00 0.00 25 1020.2
20260503180515 52 0 7.0 18.0 0.00 0.00 0.00 24 1021.2
20260503175516 50 0 6.0 14.0 0.00 0.00 0.00 27 1020.9
20260503174515 50 0 7.0 15.0 0.00 0.00 0.00 25 1021.1
20260503173516 50 0 7.0 16.0 0.00 0.00 0.00 29 1021.5
20260503172515 49 0 5.0 13.0 0.00 0.00 0.00 30 1021.5
20260503171516 48 0 6.0 14.0 0.00 0.00 0.00 31 1021.1
20260503170516 48 0 6.0 14.0 0.00 0.00 0.00 31 1021.0
20260503150517 42 113 5.0 9.0 0.00 0.00 0.00 39 1020.8
20260503130517 39 0.0 3.0 0.00 0.00 0.00 41 1023.2
20260503110536 41 315 4.0 12.0 0.00 0.00 0.00 38 1024.2
20260503081516 41 0.0 2.0 0.00 0.00 0.00 42 1024.8
20260503080536 41 0.0 2.0 0.00 0.00 0.00 42 1025.1
20260503072516 42 45 2.0 3.0 0.00 0.00 0.00 40 1024.9
20260503071516 42 45 2.0 4.0 0.00 0.00 0.00 40 1025.1
20260503070536 42 45 2.0 4.0 0.00 0.00 0.00 40 1025.1
20260503054516 43 45 3.0 6.0 0.00 0.00 0.00 36 1025.4
20260503053516 43 23 2.0 3.0 0.00 0.00 0.00 32 1025.3
20260503052516 43 45 2.0 4.0 0.00 0.00 0.00 31 1025.3
20260503051516 43 0.0 2.0 0.00 0.00 0.00 21 1023.8
20260503050516 43 0.0 2.0 0.00 0.00 0.00 20 1023.7
20260503045516 42 158 1.0 2.0 0.00 0.00 0.00 22 1023.9
20260503044516 42 158 3.0 4.0 0.00 0.00 0.00 22 1022.6
20260503043516 41 158 3.0 5.0 0.00 0.00 0.00 23 1022.7
20260503042516 40 158 3.0 5.0 0.00 0.00 0.00 24 1022.7
20260503041536 41 158 3.0 6.0 0.00 0.00 0.00 25 1022.1
20260503040516 41 180 2.0 3.0 0.00 0.00 0.00 23 1022.2
20260503035516 41 203 3.0 4.0 0.00 0.00 0.00 22 1022.2
20260503034516 42 203 2.0 2.0 0.00 0.00 0.00 21 1022.3
20260503033518 43 203 1.0 2.0 0.00 0.00 0.00 20 1022.3
20260503032516 42 203 1.0 2.0 0.00 0.00 0.00 21 1022.3
20260503031516 43 0.0 0.0 0.00 0.00 0.00 20 1022.3
20260503030516 44 0.0 1.0 0.00 0.00 0.00 20 1022.3
20260503025516 44 0.0 0.0 0.00 0.00 0.00 20 1022.3
20260503024516 45 203 1.0 2.0 0.00 0.00 0.00 19 1021.7